[[{"header":{"parameterUnit":"m.s-1","parameterCategory":1,"la1":30.2991,"la2":30.254,"lo1":-89.0895,"lo2":-89.0444,"dy":0.0017,"dx":0.0017,"nx":28,"ny":28,"refTime":"2025-04-21T03:00:00:Z","depth":0,"parameterNumber":2,"parameterNumberName":"U-component_of_WINDS"},"data":[0,0,0,0,0,0,0,0,0,0,0,0,0,0,0,0,0,0,0,0,0,0,0,0,0,0,0,0,0,0,0,0,0,0,0,0,0,0,0,0,0,0,0,0,0,0,0,0,0,0,0,0,0,0,0,0,0,0,-3.2555,-3.2558,0,-3.2805,-3.2808,-3.2811,-3.2878,-3.2876,-3.2875,-3.2873,-3.313,-3.3138,-3.3147,0,0,0,0,0,0,0,0,0,0,0,0,0,-3.2136,-3.2143,-3.2555,-3.2558,-3.2561,-3.2805,-3.2808,-3.2812,-3.2878,-3.2876,-3.2874,-3.2873,-3.3128,-3.3137,-3.3147,0,0,0,0,0,0,0,0,0,0,0,0,0,-3.2345,-3.2146,-3.2554,-3.2623,-3.2632,-3.2804,-3.2808,-3.2813,-3.2878,-3.2876,-3.2874,-3.2872,-3.3125,-3.3137,-3.3149,-3.327,0,0,-3.3187,-3.3192,0,0,0,0,0,0,0,0,-3.2333,-3.236,-3.261,-3.2619,-3.2629,-3.2808,-3.2755,-3.2966,-3.2879,-3.2785,-3.2873,-3.2871,-3.3025,-3.3045,-3.3097,-3.3282,-3.3293,-3.3188,-3.3195,-3.32,-3.3204,0,0,0,0,0,0,0,-3.2319,-3.235,-3.2654,-3.2614,-3.2625,-3.2643,-3.267,-3.2795,-3.2914,-3.2793,-3.2798,-3.2827,-3.303,-3.3085,-3.3104,-3.3297,-3.3187,-3.3198,-3.3206,-3.3211,-3.3595,-3.3598,0,0,0,0,0,0,-3.2292,-3.2338,-3.2646,-3.2661,-3.2473,-3.2652,-3.2682,-3.2753,-3.2913,-3.2936,-3.2829,-3.2829,-3.3065,-3.3089,-3.3113,-3.3266,-3.32,-3.3212,-3.3219,-3.3592,-3.3596,-3.3599,0,0,0,0,0,0,-3.2283,-3.2319,-3.2636,-3.2501,-3.2543,-3.2662,-3.274,-3.2759,-3.2814,-3.294,-3.2962,-3.2863,-3.3064,-3.3096,-3.3231,-3.3276,-3.3217,-3.3229,-3.3589,-3.3593,-3.3597,-3.3573,0,0,0,0,0,0,-3.227,-3.2315,-3.2362,-3.2502,-3.255,-3.2748,-3.2743,-3.2765,-3.2835,-3.2839,-3.2979,-3.3,-3.3065,-3.3212,-3.3243,-3.3292,-3.3238,-3.3586,-3.3591,-3.3596,-3.357,-3.3576,-3.358,0,0,0,0,0,-3.2255,-3.2345,-3.2364,-3.2401,-3.261,-3.2751,-3.2779,-3.2852,-3.2839,-3.2887,-3.2968,-3.2995,-3.3266,-3.3225,-3.3261,-3.3314,-3.3583,-3.3589,-3.3596,-3.3568,-3.3574,-3.358,0,0,0,0,0,0,-3.2207,-3.2364,-3.2387,-3.2525,-3.2624,-3.2762,-3.2825,-3.2856,-3.2962,-3.296,-3.3047,-3.3078,-3.3207,-3.3275,-3.3226,-3.3441,-3.3425,-3.3439,-3.3392,-3.3399,-3.3404,-3.3385,-3.3249,0,0,0,0,0,-3.2212,-3.2313,-3.2445,-3.2554,-3.2603,-3.2705,-3.2769,-3.2817,-3.2923,-3.2966,-3.3057,-3.3159,-3.3268,-3.3337,-3.3444,-3.3581,-3.3612,-3.3635,-3.364,-3.3644,-3.3654,-3.3732,-3.3744,-3.3619,-3.3619,-3.3619,0,0,-3.2225,-3.2323,-3.2381,-3.2547,-3.2629,-3.2732,-3.274,-3.2848,-3.2925,-3.2982,-3.3115,-3.3186,-3.3306,-3.3442,-3.3507,-3.3503,-3.3696,-3.3652,-3.3654,-3.3663,-3.374,-3.3752,-3.3762,-3.3624,-3.3623,-3.3622,0,0,-3.2299,-3.2383,-3.2483,-3.2566,-3.2691,-3.2759,-3.2783,-3.2917,-3.2966,-3.3101,-3.3146,-3.324,-3.3425,-3.3509,-3.3576,-3.3684,-3.3713,-3.3717,-3.3743,-3.3818,-3.3828,-3.3837,-3.3876,-3.3889,-3.3727,-3.3727,-3.3727,0,-3.2298,-3.2454,-3.2531,-3.2637,-3.2709,-3.2766,-3.2868,-3.2945,-3.3099,-3.3147,-3.314,-3.3374,-3.3459,-3.3616,-3.3643,-3.3695,-3.3726,-3.37,-3.382,-3.383,-3.384,-3.3878,-3.3892,-3.3727,-3.3727,-3.3727,-3.3727,0,-3.2447,-3.2555,-3.2621,-3.2768,-3.2847,-3.2951,-3.3044,-3.3115,-3.3157,-3.3226,-3.3363,-3.3467,-3.3597,-3.3638,-3.3679,-3.3801,-3.3795,-3.3803,-3.3789,-3.385,-3.3887,-3.3902,-3.3726,-3.3726,-3.3726,-3.3726,0,0,-3.2497,-3.2686,-3.2709,-3.2777,-3.2919,-3.3005,-3.3111,-3.3238,-3.3298,-3.3402,-3.3494,-3.365,-3.3659,-3.3735,-3.3787,-3.3853,-3.3932,-3.3853,-3.3857,-3.3864,-3.4074,-3.4066,-3.4082,-3.3953,-3.3956,-3.3958,-3.4064,0,-3.2589,-3.2782,-3.2854,-3.3012,-3.3113,-3.3169,-3.3263,-3.3361,-3.3428,-3.3524,-3.3599,-3.3708,-3.3712,-3.3758,-3.3826,-3.3908,-3.3975,-3.3901,-3.4039,-3.4043,-3.4007,-3.4101,-3.4093,-3.4188,-3.4078,-3.4081,-3.4083,0,-3.2722,-3.2828,-3.2995,-3.3127,-3.3172,-3.3254,-3.3377,-3.3468,-3.3581,-3.3625,-3.3711,-3.3759,-3.3874,-3.3853,-3.4013,-3.3961,-3.4022,-3.4071,-3.4077,-3.4092,-3.4066,-3.4118,-3.422,-3.4233,-3.4106,-3.4105,-3.4103,0,-3.2741,-3.2926,-3.3051,-3.3107,-3.3263,-3.332,-3.3388,-3.3499,-3.357,-3.3678,-3.3725,-3.3844,-3.3909,-3.4001,-3.408,-3.4058,-3.4233,-3.4219,-3.4274,-3.4272,-3.4308,-3.4304,-3.4419,-3.4347,-3.4347,-3.4347,-3.4347,0,-3.2836,-3.2937,-3.3061,-3.3138,-3.3252,-3.3336,-3.3447,-3.3518,-3.3617,-3.3709,-3.3765,-3.385,-3.395,-3.4048,-3.4111,-3.4234,-3.4263,-3.4303,-3.4318,-3.4298,-3.4293,-3.4339,-3.4334,-3.4351,-3.435,-3.4349,-3.4349,0,-3.2877,-3.2965,-3.3104,-3.3241,-3.3278,-3.3356,-3.3474,-3.355,-3.3621,-3.3737,-3.3769,-3.388,-3.3998,-3.4087,-3.4241,-3.4283,-3.4414,-3.443,-3.4376,-3.4384,-3.4433,-3.4427,-3.4582,-3.4607,-3.4518,-3.4518,-3.4519,0,-3.2932,-3.301,-3.3156,-3.3221,-3.3289,-3.3393,-3.3467,-3.3553,-3.3627,-3.3762,-3.3823,-3.3946,-3.4048,-3.4236,-3.433,-3.4449,-3.4468,-3.4514,-3.4486,-3.4463,-3.4469,-3.4463,-3.4471,-3.4517,-3.4518,-3.4518,-3.4519,0,-3.3019,-3.3059,-3.3162,-3.3282,-3.3368,-3.3466,-3.3565,-3.3616,-3.3719,-3.38,-3.3922,-3.4002,-3.4159,-3.4281,-3.4409,-3.448,-3.4517,-3.4527,-3.4546,-3.4525,-3.449,-3.451,-3.4386,-3.4523,-3.4522,-3.4522,-3.4522,-3.4522,-3.3069,-3.3141,-3.3255,-3.3369,-3.3453,-3.3544,-3.3623,-3.3704,-3.3807,-3.3942,-3.3986,-3.4113,-3.4225,-3.4401,-3.4473,-3.4574,-3.4573,-3.4601,-3.4608,-3.4613,-3.4611,-3.4475,-3.4597,-3.4597,-3.4597,-3.4597,-3.4597,0,-3.3159,-3.3236,-3.334,-3.3477,-3.3566,-3.3594,-3.3705,-3.3779,-3.3889,-3.399,-3.409,-3.4231,-3.4349,-3.4454,-3.4577,-3.4637,-3.4658,-3.4667,-3.4663,-3.4679,-3.4605,-3.4576,-3.4648,-3.4648,-3.4648,-3.4648,-3.4648,-3.4648,-3.3217,-3.3341,-3.3395,-3.3562,-3.3638,-3.3762,-3.3823,-3.3908,-3.399,-3.4144,-3.4243,-3.431,-3.4413,-3.4544,-3.4654,-3.4682,-3.4725,-3.473,-3.4762,-3.469,-3.4684,-3.4678,-3.4651,-3.4739,-3.4739,-3.4828,-3.4829,-3.4829]},{"header":{"parameterUnit":"m.s-1","parameterCategory":1,"la1":30.2991,"la2":30.254,"lo1":-89.0895,"lo2":-89.0444,"dy":0.0017,"dx":0.0017,"nx":28,"ny":28,"refTime":"2025-04-21T03:00:00:Z","depth":0,"parameterNumber":3,"parameterNumberName":"V-component_of_WINDS"},"data":[0,0,0,0,0,0,0,0,0,0,0,0,0,0,0,0,0,0,0,0,0,0,0,0,0,0,0,0,0,0,0,0,0,0,0,0,0,0,0,0,0,0,0,0,0,0,0,0,0,0,0,0,0,0,0,0,0,0,2.9052,2.9054,0,2.9267,2.927,2.9272,2.9335,2.9333,2.9332,2.9331,2.9549,2.9555,2.9562,0,0,0,0,0,0,0,0,0,0,0,0,0,2.8695,2.8701,2.9052,2.9054,2.9057,2.9267,2.927,2.9273,2.9335,2.9333,2.9332,2.9331,2.9546,2.9555,2.9563,0,0,0,0,0,0,0,0,0,0,0,0,0,2.8874,2.8703,2.9051,2.9113,2.9121,2.9266,2.927,2.9274,2.9335,2.9333,2.9332,2.933,2.9544,2.9554,2.9564,2.9662,0,0,2.9595,2.96,0,0,0,0,0,0,0,0,2.8864,2.8887,2.9102,2.9109,2.9118,2.9272,2.9224,2.9404,2.9336,2.9254,2.9331,2.9329,2.9458,2.9475,2.9519,2.9672,2.9681,2.9596,2.9602,2.9607,2.961,0,0,0,0,0,0,0,2.8851,2.8878,2.9137,2.9105,2.9115,2.9131,2.9154,2.9258,2.9363,2.9261,2.9266,2.9291,2.9462,2.9509,2.9525,2.9684,2.9596,2.9605,2.9611,2.9615,2.9934,2.9936,0,0,0,0,0,0,2.8828,2.8867,2.913,2.9143,2.8984,2.9139,2.9165,2.9225,2.9362,2.9381,2.9292,2.9293,2.9492,2.9513,2.9533,2.966,2.9607,2.9616,2.9622,2.9932,2.9934,2.9937,0,0,0,0,0,0,2.882,2.8851,2.9121,2.9007,2.9043,2.9147,2.9213,2.923,2.9277,2.9385,2.9404,2.9321,2.9492,2.9518,2.9631,2.9668,2.9621,2.963,2.9929,2.9932,2.9936,2.9912,0,0,0,0,0,0,2.881,2.8848,2.8885,2.9007,2.9048,2.9215,2.9215,2.9235,2.9295,2.9298,2.9417,2.9435,2.9493,2.9615,2.9641,2.9681,2.9638,2.9926,2.993,2.9934,2.991,2.9915,2.9918,0,0,0,0,0,2.8797,2.8868,2.8887,2.8918,2.9098,2.9217,2.9241,2.9306,2.9297,2.9337,2.9408,2.9432,2.966,2.9626,2.9656,2.97,2.9924,2.9929,2.9934,2.9908,2.9914,2.9918,0,0,0,0,0,0,2.8746,2.8885,2.8907,2.902,2.9107,2.9227,2.9279,2.9308,2.9398,2.9397,2.9473,2.95,2.9608,2.9665,2.9625,2.9805,2.9793,2.9804,2.9763,2.9769,2.9773,2.9757,2.9647,0,0,0,0,0,2.8748,2.8834,2.8951,2.9039,2.9082,2.9173,2.9227,2.9271,2.9363,2.9399,2.9477,2.9565,2.9658,2.9716,2.9807,2.9919,2.9948,2.9965,2.9969,2.9971,2.998,3.0049,3.0059,2.9954,2.9954,2.9954,0,0,2.8753,2.884,2.8889,2.9032,2.9104,2.9192,2.9203,2.9294,2.9361,2.9412,2.9525,2.9586,2.9689,2.9803,2.9857,2.9854,3.0016,2.9978,2.9979,2.9987,3.0055,3.0065,3.0074,2.9957,2.9957,2.9956,0,0,2.8807,2.888,2.8964,2.9038,2.9148,2.9209,2.9229,2.9347,2.939,2.9504,2.9546,2.9627,2.9782,2.9856,2.9914,3.0002,3.0029,3.0029,3.005,3.0116,3.0124,3.0132,3.0166,3.0177,3.0037,3.0037,3.0037,0,2.8798,2.8933,2.9003,2.9095,2.9158,2.9212,2.9299,2.9366,2.9499,2.9541,2.9537,2.9737,2.981,2.9945,2.9967,3.0011,3.0038,3.0015,3.0117,3.0126,3.0134,3.0168,3.018,3.0037,3.0037,3.0037,3.0037,0,2.8919,2.9012,2.9067,2.9198,2.9267,2.9355,2.944,2.9502,2.954,2.9602,2.972,2.9811,2.9922,2.9957,2.9994,3.0099,3.0094,3.0102,3.0092,3.0142,3.0175,3.0189,3.0036,3.0036,3.0037,3.0037,0,0,2.8944,2.9116,2.9135,2.9197,2.9325,2.9399,2.9491,2.9603,2.9656,2.9747,2.9827,2.9961,2.9971,3.0037,3.0083,3.0141,3.0209,3.0143,3.0146,3.0154,3.0334,3.0328,3.0342,3.0228,3.0231,3.0233,3.0326,0,2.9016,2.9184,2.9252,2.9388,2.9477,2.9532,2.9614,2.9701,2.9763,2.9848,2.9915,3.001,3.0015,3.0055,3.0115,3.0188,3.0247,3.0182,3.0306,3.0309,3.0279,3.0359,3.0352,3.0435,3.0339,3.0342,3.0343,0,2.9121,2.9217,2.9363,2.9485,2.9525,2.9596,2.9707,2.9786,2.9889,2.993,3.0006,3.005,3.0151,3.0135,3.0276,3.0231,3.0286,3.033,3.0335,3.035,3.0329,3.0377,3.0463,3.0476,3.0364,3.0362,3.0361,0,2.9128,2.9293,2.9403,2.9454,2.9598,2.9648,2.971,2.9811,2.9875,2.9972,3.0015,3.0121,3.0179,3.0261,3.0334,3.0315,3.047,3.0459,3.0509,3.0507,3.0539,3.0536,3.0636,3.0571,3.0571,3.0571,3.0571,0,2.9202,2.929,2.9409,2.9476,2.9578,2.9657,2.9755,2.9821,2.9911,2.9993,3.0047,3.0123,3.0214,3.0303,3.036,3.0471,3.0496,3.0533,3.0548,3.053,3.0525,3.0567,3.0564,3.0574,3.0574,3.0573,3.0572,0,2.9226,2.9309,2.9434,2.9562,2.9596,2.9665,2.9776,2.9844,2.991,3.0014,3.0043,3.0146,3.0254,3.0335,3.0473,3.0513,3.0631,3.0645,3.0597,3.0605,3.0651,3.0647,3.0783,3.0806,3.0723,3.0724,3.0724,0,2.9268,2.9338,2.9475,2.9536,2.9598,2.9693,2.9761,2.9843,2.9911,3.0036,3.009,3.0202,3.0296,3.0465,3.0553,3.066,3.0679,3.0719,3.0695,3.0676,3.0683,3.0679,3.0688,3.0722,3.0723,3.0723,3.0724,0,2.9336,2.9375,2.947,2.9582,2.9662,2.9753,2.9845,2.9891,2.9989,3.0064,3.0176,3.0249,3.0393,3.0505,3.0622,3.0687,3.0723,3.0731,3.0749,3.0731,3.0702,3.0722,3.0608,3.0727,3.0727,3.0727,3.0726,3.0726,2.9372,2.9439,2.9547,2.9653,2.9732,2.9818,2.9891,2.9967,3.0062,3.0188,3.023,3.0347,3.0452,3.0614,3.068,3.0773,3.0774,3.0798,3.0805,3.081,3.0811,3.0686,3.0795,3.0795,3.0795,3.0795,3.0795,0,2.9445,2.9518,2.9615,2.9745,2.9829,2.9857,2.9962,3.0031,3.0133,3.0229,3.0322,3.0453,3.0563,3.0661,3.0775,3.0831,3.0851,3.0859,3.0856,3.0872,3.0802,3.0777,3.0842,3.0842,3.0841,3.0841,3.0841,3.0841,2.9492,2.9607,2.966,2.9816,2.9889,3.0005,3.0063,3.0144,3.0222,3.0366,3.0459,3.0523,3.0621,3.0744,3.0847,3.0873,3.0914,3.0918,3.0948,3.0881,3.0876,3.087,3.0847,3.0925,3.0926,3.101,3.1011,3.1012]}]]